Wind_Speed
17 15 12 8 7 4 4 1 2 8 9 14 17 22 23 25 25 26 25 23 20 18 13 13 14 16 17 18 20 21 22 22 22 20 18 16 17 14 12 13 13 14 16 16 17 18 17 17 17
17 15 13 10 7 5 1 3 5 3 8 8 12 21 22 23 22 23 24 25 21 18 14 13 13 15 17 18 19 20 21 22 22 20 20 19 17 16 15 16 17 19 19 19 19 20 21 23 25
14 14 14 11 11 7 5 1 8 3 4 5 9 12 19 21 20 21 22 22 23 19 15 12 13 14 15 18 19 18 19 20 20 21 20 21 19 19 18 18 18 19 20 20 21 22 23 24 25
14 14 16 15 17 12 9 5 4 1 5 6 6 6 15 17 17 18 19 19 21 21 16 13 13 13 13 15 18 19 18 18 18 18 19 19 19 19 19 18 18 19 19 19 21 21 22 22 22
15 14 14 14 18 17 16 11 7 4 6 7 7 4 7 13 14 15 17 18 19 19 18 14 13 13 10 13 15 17 19 18 17 17 17 16 17 17 17 18 17 18 17 17 17 16 16 16 15
18 16 15 13 18 20 21 18 14 9 10 12 6 3 4 8 9 11 13 14 16 17 17 16 14 12 10 9 13 15 17 17 17 16 15 15 14 15 15 16 16 15 15 14 15 15 13 12 11
22 20 16 15 17 22 24 22 18 14 13 10 9 10 4 3 5 5 7 11 12 13 15 17 14 12 10 8 9 12 15 15 15 16 15 14 13 12 12 13 13 14 13 12 11 11 11 10 9
26 25 21 19 21 24 25 25 22 20 13 12 12 12 8 12 3 2 2 5 8 10 11 14 15 13 10 8 6 8 10 13 14 13 14 14 13 12 12 13 13 12 12 12 11 10 9 8 8
29 29 26 25 25 23 25 27 28 24 20 18 17 16 15 11 13 5 2 2 4 6 8 11 12 14 11 8 6 5 6 9 11 12 12 12 12 11 11 12 13 12 11 10 9 9 8 6 4
32 32 31 30 28 27 27 28 29 28 27 24 22 21 19 12 10 7 5 4 3 4 5 6 8 10 11 9 6 5 2 5 7 9 11 11 10 10 10 11 12 12 11 9 8 7 7 5 5
32 33 34 33 33 32 31 31 31 30 31 31 28 26 23 19 16 12 9 7 5 6 5 6 4 6 7 8 7 4 2 1 3 6 7 8 10 11 10 9 9 9 10 9 8 7 7 7 6
36 34 36 35 37 37 35 33 34 34 36 36 33 30 29 26 21 19 13 11 8 8 8 7 7 4 3 4 5 5 2 1 2 5 7 8 9 9 10 10 10 10 10 10 10 10 9 9 9
33 37 38 37 39 38 38 36 35 37 36 38 36 35 34 31 27 25 21 19 10 14 10 10 9 8 6 4 2 2 3 2 3 5 6 9 11 11 11 11 10 10 10 10 10 10 9 9 9
33 33 37 38 36 38 40 40 40 38 37 40 39 38 36 36 35 31 29 26 21 16 14 13 11 10 9 8 7 4 3 3 4 5 7 8 9 11 13 13 13 13 13 12 12 11 11 11 11
37 37 36 37 39 38 38 40 43 45 42 38 40 43 41 39 39 39 35 33 29 26 23 20 17 13 12 12 11 10 7 7 6 6 8 9 10 11 12 13 13 13 13 13 13 13 13 14 13
36 38 38 38 39 41 40 43 47 48 47 46 45 42 43 45 42 43 44 41 39 34 29 29 25 20 18 16 15 14 13 10 9 9 9 10 12 12 12 14 15 14 15 15 15 14 14 15 14
34 37 38 38 39 41 43 45 47 49 50 51 51 50 47 46 47 48 48 49 46 43 40 36 33 28 24 23 20 18 17 15 12 10 12 12 12 13 14 16 16 16 17 16 16 16 16 16 15
31 32 33 33 36 39 42 45 47 49 51 52 54 54 54 51 49 53 54 54 53 51 48 44 40 38 35 31 27 23 20 20 17 16 15 15 15 14 14 14 15 16 17 18 17 18 16 15 15
26 28 30 33 34 35 37 42 43 46 51 56 57 58 59 59 56 54 56 60 59 57 56 52 48 45 44 38 34 29 27 27 25 24 22 19 18 17 18 17 16 15 15 17 18 16 17 18 18
26 28 29 32 34 37 38 42 47 46 48 52 58 62 63 62 62 62 59 59 63 62 60 60 54 50 48 46 41 40 37 35 33 31 28 25 22 21 20 21 22 20 20 19 18 19 21 21 20
25 26 28 30 33 36 40 44 47 51 52 53 55 60 63 68 68 67 68 66 64 66 65 63 60 57 53 52 49 48 46 44 39 34 32 32 30 27 26 26 27 27 26 26 26 25 25 26 26
26 28 29 31 33 35 39 43 46 51 55 57 58 60 63 66 71 74 72 72 72 68 69 69 66 64 61 59 57 55 49 46 42 40 38 38 38 35 32 33 33 32 31 30 31 33 32 34 32
27 28 28 28 28 30 33 38 44 50 54 58 61 63 66 68 72 75 78 76 76 75 72 74 72 70 67 65 62 58 56 53 49 47 45 44 42 42 41 39 38 37 36 35 35 37 37 38 39
24 24 23 22 24 27 29 34 37 41 47 50 55 61 64 68 73 78 80 81 80 80 80 77 77 75 73 71 68 64 60 58 55 54 50 48 49 48 49 47 43 42 42 41 40 41 42 43 43
20 20 19 21 23 26 28 32 34 37 40 39 37 36 38 41 57 71 79 83 83 84 85 83 80 80 79 74 72 69 65 64 61 61 59 54 55 55 50 50 51 50 48 46 47 47 48 48 49
17 17 19 22 24 26 27 30 31 33 30 31 24 16 19 22 23 32 48 70 80 83 85 84 84 81 79 78 74 73 72 70 67 63 62 59 58 59 59 58 58 55 54 53 53 54 54 54 54
16 18 20 21 22 24 25 27 32 29 28 30 21 28 29 27 32 31 28 37 56 69 76 80 83 84 80 79 78 78 76 74 71 68 68 65 61 63 66 65 65 67 66 63 61 60 59 61 62
18 18 20 21 23 25 25 25 28 28 26 27 28 26 33 35 30 28 31 30 34 43 54 65 75 80 81 79 76 81 79 77 75 73 70 68 67 67 67 70 69 68 70 71 73 73 71 70 69
16 17 18 20 22 24 26 25 26 27 26 22 26 33 33 33 32 32 36 30 35 34 35 50 62 68 75 73 72 77 81 84 80 78 77 74 73 73 68 71 71 71 75 76 78 77 77 79 74
19 18 19 20 22 24 25 26 27 27 27 27 24 29 39 41 37 38 35 39 31 31 34 44 55 57 60 66 69 64 74 77 74 76 81 80 79 79 77 72 74 74 73 76 82 78 78 72 70
Wind_Direction
195 197 205 227 243 266 309 337 89 343 45 67 65 58 51 43 34 38 34 42 39 37 47 74 86 91 88 84 85 80 79 76 68 74 86 94 93 94 93 92 94 98 103 108 112 112 110 113 118
210 209 213 218 230 263 346 44 5 359 353 48 61 67 53 44 35 34 33 34 36 35 35 67 81 92 95 91 88 87 82 78 72 72 83 89 94 96 98 97 99 101 98 100 103 106 110 113 115
209 215 219 227 228 240 241 280 356 139 26 0 355 71 63 50 34 30 33 33 29 31 30 48 72 91 94 95 94 91 90 84 80 75 77 89 96 100 96 100 106 101 94 98 101 104 106 109 110
214 218 228 234 237 245 258 267 85 153 7 336 339 20 73 56 42 27 27 33 34 28 27 35 57 82 95 97 95 96 95 93 86 86 83 89 95 98 99 104 108 101 94 101 109 112 112 114 115
226 221 222 229 238 242 253 263 255 266 268 313 324 351 71 75 57 30 30 28 33 30 28 28 46 70 88 98 98 98 100 99 97 95 97 92 96 100 104 107 110 111 108 107 108 107 109 112 117
239 231 226 224 226 238 246 249 261 269 269 277 327 294 8 85 68 49 39 37 29 29 27 30 31 56 76 94 100 103 104 104 104 103 106 109 107 109 111 114 115 116 118 118 121 125 126 126 130
239 238 229 224 226 235 240 245 249 255 255 267 295 330 337 342 102 63 39 45 39 30 29 29 32 31 55 83 101 106 109 109 109 110 114 119 121 121 121 120 122 122 122 123 125 131 133 138 144
239 240 234 228 228 234 238 249 251 258 247 256 276 287 325 321 293 144 51 36 33 38 34 33 29 34 28 54 88 111 117 117 116 115 120 126 125 125 126 127 128 129 131 132 135 136 138 145 149
243 241 238 235 234 233 239 247 256 257 260 245 262 270 290 314 321 241 184 343 1 22 35 35 27 28 33 25 49 95 124 131 128 127 126 133 130 130 130 135 135 136 139 141 142 141 140 138 150
243 244 241 242 239 238 239 243 247 254 260 259 263 268 277 278 296 326 303 268 296 315 340 12 21 22 24 30 26 35 93 143 149 143 141 142 145 146 144 145 147 150 154 158 162 165 164 168 163
242 244 245 242 241 241 240 243 248 246 253 257 258 263 270 276 277 278 307 278 263 271 278 300 342 8 16 18 26 27 30 127 181 178 174 168 165 167 171 175 176 175 180 183 186 190 192 188 194
244 245 245 244 242 246 245 243 248 249 246 250 253 257 257 261 264 270 267 286 250 266 260 259 273 293 341 3 12 13 8 253 222 217 217 206 201 195 191 194 197 203 205 204 206 209 213 217 217
244 247 247 245 243 245 246 247 243 247 252 255 251 249 258 262 258 263 262 267 275 257 242 253 245 251 262 281 309 341 341 286 235 229 220 222 222 220 224 225 222 221 227 234 233 229 228 237 247
242 242 244 243 242 240 245 248 250 249 245 251 254 251 248 254 259 260 258 256 258 259 245 239 236 243 243 250 256 253 261 294 268 242 239 229 222 225 226 228 233 234 233 235 240 244 242 239 246
240 244 246 246 243 244 243 247 249 249 251 248 252 252 249 245 250 257 255 255 246 246 250 241 229 226 241 240 245 246 235 244 260 266 249 243 239 232 233 232 232 236 236 237 236 239 241 241 239
248 250 250 248 248 246 246 246 247 252 251 250 251 253 251 250 245 246 254 253 256 247 241 242 228 228 236 237 238 242 245 235 243 253 263 257 251 248 243 240 239 236 236 237 237 238 241 240 238
250 252 254 258 254 253 250 247 248 247 249 249 250 253 253 248 246 244 245 250 252 254 251 244 234 224 234 242 242 237 241 240 239 245 254 259 261 257 254 252 250 244 240 239 240 239 239 239 234
255 256 256 254 255 256 256 255 252 249 248 247 247 249 251 250 243 242 243 244 247 250 252 251 246 241 243 248 244 246 240 234 236 239 241 251 255 258 258 257 256 252 248 243 235 235 230 231 230
259 259 261 263 263 263 262 259 258 255 251 247 246 245 247 248 246 245 241 242 244 248 251 251 252 247 245 246 247 246 248 244 233 239 240 240 248 253 253 255 255 253 249 243 239 233 231 232 235
263 265 267 267 268 266 267 266 265 263 259 253 250 247 245 247 248 245 245 242 241 242 246 249 249 246 245 246 240 243 242 240 240 239 244 245 247 252 253 253 252 248 249 251 246 241 241 246 245
273 279 280 280 280 277 279 277 272 271 266 261 255 250 248 246 245 246 245 244 241 240 240 245 247 246 243 243 244 242 241 242 238 239 245 247 244 246 252 251 252 251 248 250 253 251 250 251 252
284 283 282 282 282 282 280 280 277 274 272 268 263 258 251 246 245 243 243 243 242 240 237 239 243 246 245 242 243 244 244 242 244 243 242 246 251 246 243 250 253 254 254 252 254 255 254 255 255
281 283 286 287 287 287 287 286 283 281 276 271 265 260 255 250 245 244 242 239 240 240 238 235 238 241 243 245 245 244 245 247 243 242 245 248 247 250 249 244 247 254 257 256 255 255 256 256 256
281 286 289 300 305 302 303 301 298 292 286 281 272 264 257 250 245 243 243 243 239 237 236 236 233 236 239 242 244 247 246 247 247 245 247 249 250 250 253 253 249 248 249 253 254 254 255 256 257
282 291 313 316 317 318 321 319 317 315 312 304 299 291 280 272 260 245 242 241 242 239 237 236 235 233 236 238 242 245 246 244 249 251 248 247 243 244 246 251 253 255 255 251 251 251 253 256 257
288 304 315 321 325 324 327 326 324 325 319 309 318 318 303 309 304 276 258 246 242 243 240 236 237 235 234 235 235 239 243 242 246 247 251 248 249 243 242 242 243 245 248 252 251 251 251 251 253
287 307 316 321 324 323 327 329 330 328 316 305 284 284 292 294 293 295 303 269 255 247 247 242 237 236 235 234 234 235 238 242 243 243 248 247 249 249 242 241 242 243 243 244 246 249 251 252 252
294 309 319 323 330 329 331 334 326 327 314 294 286 278 284 290 284 288 272 286 271 258 252 250 242 239 238 235 233 234 235 238 241 243 246 246 253 251 245 244 243 245 247 246 247 246 247 248 251
300 309 316 322 330 328 327 329 329 327 321 311 285 274 278 281 277 282 296 271 271 265 249 251 245 243 242 242 239 234 235 236 239 244 247 248 251 251 244 245 245 245 250 251 251 251 250 252 253
307 310 313 319 326 326 327 327 325 329 325 315 309 283 273 277 279 279 282 268 257 248 242 247 242 238 243 247 246 240 238 237 238 239 242 246 246 246 244 244 245 246 244 247 246 244 245 250 250
Height
5896 5898 5899 5901 5904 5902 5903 5903 5904 5903 5902 5900 5899 5898 5898 5896 5896 5895 5891 5889 5888 5887 5887 5885 5884 5884 5882 5880 5880 5879 5879 5879 5879 5879 5879 5880 5881 5882 5883 5883 5883 5883 5884 5885 5886 5886 5887 5887 5888
5895 5897 5899 5900 5902 5902 5903 5903 5903 5904 5903 5901 5900 5898 5898 5899 5898 5896 5894 5892 5891 5889 5889 5888 5886 5885 5884 5882 5882 5882 5882 5881 5882 5882 5882 5882 5884 5885 5886 5886 5886 5887 5887 5888 5889 5889 5889 5891 5892
5893 5896 5898 5899 5900 5901 5903 5904 5903 5903 5903 5902 5902 5900 5899 5898 5900 5898 5895 5894 5893 5892 5892 5891 5889 5887 5887 5885 5884 5884 5884 5885 5885 5885 5885 5885 5887 5887 5889 5889 5889 5890 5890 5891 5892 5893 5894 5895 5896
5892 5895 5897 5898 5898 5900 5900 5902 5905 5904 5903 5903 5903 5902 5899 5899 5900 5900 5899 5897 5894 5895 5895 5894 5891 5890 5889 5888 5886 5886 5887 5887 5888 5889 5889 5890 5890 5890 5891 5892 5893 5893 5894 5895 5896 5897 5897 5898 5899
5889 5892 5894 5896 5896 5898 5898 5900 5902 5904 5904 5903 5904 5903 5901 5900 5900 5901 5900 5899 5897 5896 5896 5896 5894 5892 5892 5890 5889 5888 5888 5889 5890 5891 5892 5893 5894 5894 5894 5895 5895 5895 5896 5898 5899 5900 5901 5902 5902
5887 5889 5892 5894 5894 5894 5895 5897 5899 5902 5903 5903 5904 5904 5902 5901 5901 5901 5901 5900 5900 5899 5897 5897 5896 5895 5894 5893 5891 5890 5890 5890 5891 5892 5894 5895 5897 5897 5897 5897 5898 5898 5899 5900 5901 5902 5902 5903 5904
5882 5885 5889 5891 5892 5890 5892 5894 5898 5901 5903 5903 5903 5904 5903 5903 5901 5902 5902 5901 5900 5900 5900 5898 5897 5897 5896 5895 5894 5893 5892 5892 5892 5893 5895 5897 5898 5899 5899 5899 5899 5900 5901 5902 5903 5904 5904 5904 5905
5878 5881 5884 5886 5887 5886 5889 5891 5894 5897 5902 5902 5902 5902 5905 5903 5903 5902 5902 5902 5902 5900 5900 5900 5899 5898 5897 5897 5896 5895 5895 5894 5894 5895 5896 5898 5899 5900 5900 5901 5901 5902 5902 5904 5904 5905 5906 5906 5906
5873 5877 5880 5881 5882 5885 5886 5887 5889 5893 5897 5900 5900 5901 5902 5903 5902 5902 5902 5902 5903 5902 5901 5900 5900 5899 5898 5898 5897 5896 5896 5896 5896 5896 5897 5898 5899 5900 5901 5901 5902 5903 5904 5904 5905 5906 5906 5907 5907
5867 5870 5874 5877 5879 5881 5882 5883 5885 5889 5891 5894 5895 5897 5899 5901 5902 5902 5902 5902 5903 5903 5901 5900 5900 5900 5899 5898 5898 5897 5897 5897 5897 5897 5897 5898 5900 5901 5901 5902 5903 5903 5904 5905 5906 5906 5907 5907 5907
5861 5864 5866 5871 5874 5876 5878 5880 5879 5883 5884 5886 5888 5890 5893 5896 5898 5900 5900 5901 5901 5901 5901 5900 5899 5899 5899 5899 5898 5898 5898 5897 5897 5897 5898 5898 5899 5900 5902 5903 5903 5904 5905 5905 5905 5905 5906 5906 5907
5854 5857 5860 5863 5867 5871 5873 5876 5877 5875 5875 5878 5882 5884 5886 5888 5891 5894 5896 5898 5899 5899 5899 5898 5898 5898 5898 5898 5898 5898 5897 5898 5897 5897 5897 5898 5899 5900 5900 5902 5903 5903 5904 5904 5904 5904 5904 5904 5905
5847 5849 5852 5857 5861 5865 5867 5869 5870 5871 5872 5871 5876 5880 5882 5885 5886 5888 5891 5893 5896 5896 5897 5897 5896 5896 5896 5896 5896 5896 5896 5897 5897 5897 5897 5897 5897 5898 5899 5900 5900 5901 5902 5902 5902 5903 5903 5902 5902
5841 5842 5845 5850 5854 5857 5861 5862 5864 5865 5866 5866 5867 5870 5876 5879 5881 5884 5885 5886 5889 5893 5893 5894 5893 5894 5894 5893 5894 5894 5894 5894 5895 5895 5896 5896 5896 5897 5897 5898 5899 5899 5899 5900 5900 5901 5901 5901 5900
5834 5836 5838 5842 5847 5850 5853 5855 5854 5856 5858 5861 5861 5864 5867 5871 5875 5875 5880 5881 5881 5884 5888 5889 5890 5889 5890 5891 5891 5892 5892 5892 5892 5893 5893 5894 5894 5894 5895 5895 5895 5896 5897 5897 5898 5898 5899 5899 5899
5826 5830 5831 5834 5838 5843 5845 5847 5846 5847 5849 5852 5854 5855 5859 5863 5867 5870 5871 5874 5875 5878 5880 5881 5883 5884 5885 5887 5887 5888 5889 5889 5890 5890 5890 5891 5891 5892 5892 5893 5893 5893 5894 5894 5895 5895 5896 5896 5896
5819 5822 5825 5825 5829 5833 5835 5834 5836 5838 5841 5842 5845 5847 5849 5853 5858 5859 5861 5863 5865 5869 5871 5874 5876 5878 5880 5882 5883 5884 5885 5886 5886 5887 5888 5888 5889 5889 5889 5890 5890 5890 5891 5891 5892 5892 5892 5893 5893
5811 5814 5816 5818 5822 5822 5822 5823 5824 5827 5829 5831 5831 5835 5838 5840 5843 5847 5850 5853 5856 5858 5861 5864 5869 5871 5873 5875 5877 5879 5880 5880 5881 5882 5883 5884 5885 5886 5886 5887 5887 5887 5888 5888 5888 5888 5889 5890 5891
5804 5806 5807 5810 5812 5813 5812 5811 5811 5813 5815 5819 5822 5823 5824 5827 5829 5832 5837 5840 5843 5848 5850 5854 5859 5863 5862 5867 5872 5873 5875 5875 5876 5876 5878 5878 5880 5881 5882 5883 5883 5884 5884 5884 5885 5885 5886 5887 5887
5797 5798 5800 5801 5802 5802 5802 5800 5798 5801 5803 5806 5807 5810 5813 5817 5819 5821 5821 5823 5828 5834 5838 5841 5847 5851 5856 5857 5860 5863 5865 5865 5868 5870 5872 5873 5874 5875 5877 5878 5879 5880 5881 5881 5881 5882 5882 5882 5883
5789 5790 5791 5793 5792 5791 5790 5788 5788 5785 5788 5791 5793 5795 5798 5801 5805 5805 5808 5809 5812 5818 5824 5828 5832 5837 5842 5846 5848 5851 5854 5856 5859 5863 5866 5866 5865 5868 5870 5872 5872 5873 5875 5876 5875 5876 5877 5876 5877
5782 5783 5783 5783 5783 5783 5781 5777 5776 5774 5774 5775 5777 5778 5781 5783 5784 5785 5789 5793 5797 5801 5808 5813 5817 5822 5828 5832 5835 5839 5845 5849 5854 5854 5854 5856 5858 5860 5861 5863 5864 5865 5867 5869 5869 5868 5869 5869 5870
5775 5774 5775 5773 5773 5772 5770 5767 5762 5759 5758 5756 5755 5758 5760 5763 5765 5765 5767 5773 5780 5785 5790 5796 5802 5807 5812 5817 5822 5827 5832 5838 5841 5843 5846 5847 5847 5850 5852 5853 5855 5857 5858 5859 5860 5860 5860 5860 5860
5769 5768 5767 5765 5763 5764 5762 5758 5754 5749 5742 5736 5735 5735 5736 5739 5741 5745 5749 5754 5762 5762 5767 5775 5786 5791 5794 5800 5807 5814 5820 5825 5827 5831 5836 5838 5839 5839 5841 5843 5845 5846 5847 5849 5850 5849 5849 5850 5850
5763 5761 5760 5758 5755 5754 5752 5747 5742 5736 5729 5725 5721 5721 5720 5722 5724 5724 5729 5736 5741 5740 5749 5755 5762 5773 5780 5786 5792 5799 5804 5807 5811 5815 5819 5820 5822 5824 5828 5830 5833 5835 5836 5836 5836 5837 5837 5838 5838
5756 5756 5755 5751 5748 5747 5744 5740 5736 5731 5725 5720 5716 5714 5714 5714 5712 5712 5714 5716 5721 5722 5730 5739 5745 5753 5762 5771 5776 5782 5786 5790 5794 5798 5802 5806 5809 5811 5811 5812 5814 5816 5818 5820 5821 5822 5823 5824 5823
5750 5750 5749 5746 5743 5741 5739 5734 5729 5724 5720 5717 5717 5712 5710 5709 5709 5707 5706 5705 5705 5706 5711 5718 5726 5733 5743 5751 5760 5763 5768 5772 5777 5781 5785 5790 5792 5795 5796 5796 5797 5797 5799 5801 5803 5805 5808 5807 5810
5743 5743 5741 5738 5736 5733 5731 5728 5723 5719 5716 5714 5712 5710 5707 5705 5703 5700 5696 5696 5694 5693 5696 5701 5708 5717 5724 5732 5740 5746 5750 5754 5758 5762 5768 5774 5776 5778 5779 5782 5783 5784 5786 5786 5786 5787 5789 5789 5793
5738 5736 5735 5733 5731 5728 5726 5724 5719 5715 5710 5707 5705 5703 5700 5698 5695 5692 5690 5689 5688 5687 5687 5689 5693 5696 5706 5713 5721 5728 5733 5736 5741 5745 5748 5754 5759 5762 5764 5766 5768 5771 5771 5770 5771 5773 5774 5777 5782
5730 5729 5729 5727 5726 5723 5720 5719 5712 5709 5704 5699 5697 5694 5691 5688 5686 5685 5684 5682 5680 5681 5677 5680 5681 5683 5689 5695 5701 5708 5713 5717 5719 5723 5731 5736 5739 5743 5748 5750 5752 5753 5754 5752 5751 5750 5753 5760 5763